This is the latest recevied weather packets stored in our database for station/object KC8RFE-1. If no packets are shown the sender has not sent any weather packets the latest 1 day(s).
| Time | Temp. | Humidity | Pressure | Rain* | Wind** | Luminosity | Snow |
|---|---|---|---|---|---|---|---|
| 1778022509 | 9.44° C | 6% | - | 0 mm | 1.34 m/s, 36° | - | - |
| 1778022209 | 9.44° C | 6% | - | 0 mm | 1.79 m/s, 30° | - | - |
| 1778021909 | 9.44° C | 6% | - | 0 mm | 1.79 m/s, 41° | - | - |
| 1778021609 | 9.44° C | 6% | - | 0 mm | 1.79 m/s, 41° | - | - |
| 1778021309 | 9.44° C | 6% | - | 0 mm | 1.34 m/s, 49° | - | - |
| 1778021009 | 9.44° C | 6% | - | 0 mm | 0.89 m/s, 33° | - | - |
| 1778020709 | 9.44° C | 6% | - | 0 mm | 1.34 m/s, 27° | - | - |
| 1778020409 | 9.44° C | 6% | - | 0 mm | 0.89 m/s, 11° | - | - |
| 1778020109 | 9.44° C | 6% | - | 0 mm | 1.79 m/s, 19° | - | - |
| 1778019809 | 10° C | 6% | - | 0 mm | 1.79 m/s, 13° | - | - |
| 1778019509 | 10° C | 6% | - | 0 mm | 1.34 m/s, 302° | - | - |
| 1778019209 | 10° C | 6% | - | 0 mm | 1.34 m/s, 324° | - | - |
| 1778018909 | 10° C | 6% | - | 0 mm | 1.34 m/s, 278° | - | - |
| 1778018609 | 10° C | 6% | - | 0 mm | 0.89 m/s, 281° | - | - |
| 1778018309 | 10° C | 6% | - | 0 mm | 1.34 m/s, 19° | - | - |
| 1778018009 | 10° C | 6% | - | 0 mm | 1.34 m/s, 329° | - | - |
| 1778017709 | 10° C | 6% | - | 0 mm | 0.89 m/s, 343° | - | - |
| 1778017409 | 10° C | 6% | - | 0 mm | 0.89 m/s, 283° | - | - |
| 1778017109 | 10° C | 6% | - | 0 mm | 0.89 m/s, 275° | - | - |
| 1778016810 | 10° C | 6% | - | 0 mm | 1.34 m/s, 263° | - | - |
| 1778016510 | 10° C | 6% | - | 0 mm | 1.79 m/s, 263° | - | - |
| 1778016210 | 10° C | 6% | - | 0 mm | 1.34 m/s, 283° | - | - |
| 1778015910 | 10.56° C | 7% | - | 0 mm | 1.34 m/s, 288° | - | - |
| 1778015610 | 10.56° C | 7% | - | 0 mm | 1.34 m/s, 248° | - | - |
| 1778015310 | 10.56° C | 7% | - | 0 mm | 0.89 m/s, 285° | - | - |
* Rain latest hour (hover to see other rain measurements)
** Current wind speed in m/s (hover to see current wind gust speed)